DLH9DS LPPT-EDDF

Flight info

Callsign DLH9DS
Flight time 2h 31m
Altitude 32000
Route IXIDA DCT TOSDI DCT ZMR/N0461F340 DCT NUBLO DCT RONSI DCT DELOG DCT PEXOD DCT DIDIG DCT TIRAV DCT ERJAZ DCT PIWIZ DCT TSU DCT OQQAL DCT RANUX/N0456F350 DCT VALEK DCT LUTAX DCT DIK T856 NIVNU/N0406F230 T847 IMCOM IMCOM1D
Aircraft A321/M-SDE3FGHIRWY/LB1

Departure

Time 2026-04-14 10:46
Airport Lisbon Humberto Delgado Airport (LPPT)

Arrival

Time 2026-04-14 13:17
Airport Frankfurt Main Airport (EDDF)
Time Latitude Longitude Altitude Speed Heading
2026-04-14 10:17 38.77251 -9.13166 347 ft 0 kts 78°
2026-04-14 10:37 38.77248 -9.13180 355 ft 4 kts 75°
2026-04-14 10:37 38.77241 -9.13210 350 ft 4 kts 54°
2026-04-14 10:38 38.77222 -9.13228 355 ft 4 kts
2026-04-14 10:38 38.77210 -9.13228 351 ft 0 kts 348°
2026-04-14 10:40 38.77211 -9.13228 347 ft 1 kts 348°
2026-04-14 10:40 38.77231 -9.13234 351 ft 4 kts 348°
2026-04-14 10:41 38.77270 -9.13243 347 ft 8 kts 350°
2026-04-14 10:41 38.77324 -9.13290 352 ft 11 kts 289°
2026-04-14 10:41 38.77316 -9.13386 349 ft 11 kts 260°
2026-04-14 10:41 38.77300 -9.13487 350 ft 12 kts 257°
2026-04-14 10:42 38.77281 -9.13591 347 ft 12 kts 257°
2026-04-14 10:42 38.77263 -9.13702 356 ft 13 kts 260°
2026-04-14 10:42 38.77243 -9.13817 348 ft 13 kts 243°
2026-04-14 10:42 38.77166 -9.13879 350 ft 13 kts 204°
2026-04-14 10:43 38.77079 -9.13929 355 ft 14 kts 204°
2026-04-14 10:43 38.76987 -9.13978 353 ft 15 kts 201°
2026-04-14 10:43 38.76892 -9.14026 349 ft 15 kts 202°
2026-04-14 10:43 38.76792 -9.14080 349 ft 16 kts 202°
2026-04-14 10:44 38.76690 -9.14134 349 ft 16 kts 202°
2026-04-14 10:44 38.76601 -9.14211 345 ft 16 kts 255°
2026-04-14 10:44 38.76637 -9.14355 335 ft 16 kts 314°
2026-04-14 10:44 38.76730 -9.14345 339 ft 13 kts 20°
2026-04-14 10:45 38.76914 -9.14250 339 ft 59 kts 23°
2026-04-14 10:45 38.77494 -9.13936 352 ft 120 kts 22°
2026-04-14 10:45 38.78435 -9.13435 350 ft 170 kts 22°
2026-04-14 10:45 38.79560 -9.12839 897 ft 171 kts 22°
2026-04-14 10:46 38.80645 -9.12255 1492 ft 172 kts 21°
2026-04-14 10:46 38.81778 -9.11574 1843 ft 191 kts 30°
2026-04-14 10:46 38.82973 -9.10640 2031 ft 213 kts 30°
2026-04-14 10:46 38.84305 -9.09607 2225 ft 233 kts 30°
2026-04-14 10:47 38.85713 -9.08512 2559 ft 238 kts 30°
2026-04-14 10:47 38.87133 -9.07407 3004 ft 240 kts 30°
2026-04-14 10:47 38.88565 -9.06295 3433 ft 241 kts 30°
2026-04-14 10:47 38.89954 -9.05080 3847 ft 244 kts 40°
2026-04-14 10:48 38.91205 -9.03606 4304 ft 245 kts 41°
2026-04-14 10:48 38.92469 -9.02128 4700 ft 246 kts 41°
2026-04-14 10:48 38.93740 -9.00648 5133 ft 247 kts 41°
2026-04-14 10:48 38.95017 -8.99167 5576 ft 248 kts 41°
2026-04-14 10:49 38.96305 -8.97675 5987 ft 250 kts 41°
2026-04-14 10:49 38.97591 -8.96179 6516 ft 246 kts 41°
2026-04-14 10:49 38.98847 -8.94716 7035 ft 242 kts 40°
2026-04-14 10:49 39.00082 -8.93275 7526 ft 243 kts 40°
2026-04-14 10:50 39.01366 -8.91778 7842 ft 260 kts 40°
2026-04-14 10:50 39.02748 -8.90164 8155 ft 273 kts 40°
2026-04-14 10:50 39.04165 -8.88504 8720 ft 277 kts 40°
2026-04-14 10:50 39.05596 -8.86826 9330 ft 279 kts 40°
2026-04-14 10:51 39.07037 -8.85137 9965 ft 281 kts 39°
2026-04-14 10:51 39.08492 -8.83430 10480 ft 287 kts 39°
2026-04-14 10:51 39.10017 -8.81644 10601 ft 306 kts 39°
2026-04-14 10:51 39.11639 -8.79746 10726 ft 323 kts 39°
2026-04-14 10:52 39.13321 -8.77774 10845 ft 340 kts 40°
2026-04-14 10:52 39.15107 -8.75680 10964 ft 355 kts 40°
2026-04-14 10:52 39.16971 -8.73426 11088 ft 371 kts 44°
2026-04-14 10:52 39.18685 -8.70937 11334 ft 380 kts 46°
2026-04-14 10:53 39.20437 -8.68364 11755 ft 383 kts 46°
2026-04-14 10:53 39.22201 -8.65768 12225 ft 386 kts 46°
2026-04-14 10:53 39.23982 -8.63149 12683 ft 389 kts 46°
2026-04-14 10:53 39.25775 -8.60518 13145 ft 392 kts 45°
2026-04-14 10:54 39.27583 -8.57866 13583 ft 395 kts 45°
2026-04-14 10:54 39.29406 -8.55192 14012 ft 398 kts 45°
2026-04-14 10:54 39.31244 -8.52491 14401 ft 401 kts 45°
2026-04-14 10:54 39.33090 -8.49777 14792 ft 403 kts 45°
2026-04-14 10:55 39.34947 -8.47045 15185 ft 405 kts 45°
2026-04-14 10:55 39.36792 -8.44330 15581 ft 407 kts 45°
2026-04-14 10:55 39.38663 -8.41568 15974 ft 409 kts 45°
2026-04-14 10:55 39.40542 -8.38791 16364 ft 411 kts 45°
2026-04-14 10:56 39.42430 -8.35997 16740 ft 413 kts 45°
2026-04-14 10:56 39.44326 -8.33191 17133 ft 415 kts 45°
2026-04-14 10:56 39.46225 -8.30379 17564 ft 416 kts 45°
2026-04-14 10:56 39.48133 -8.27553 17944 ft 417 kts 45°
2026-04-14 10:57 39.50050 -8.24709 18310 ft 420 kts 45°
2026-04-14 10:57 39.51972 -8.21854 18663 ft 422 kts 45°
2026-04-14 10:57 39.53903 -8.18988 18948 ft 424 kts 45°
2026-04-14 10:57 39.55850 -8.16092 19262 ft 427 kts 45°
2026-04-14 10:58 39.57799 -8.13187 19553 ft 429 kts 45°
2026-04-14 10:58 39.59764 -8.10254 19852 ft 431 kts 45°
2026-04-14 10:58 39.61735 -8.07310 20161 ft 433 kts 45°
2026-04-14 10:58 39.63717 -8.04356 20454 ft 435 kts 45°
2026-04-14 10:59 39.65715 -8.01394 20750 ft 437 kts 44°
2026-04-14 10:59 39.67799 -7.98513 21037 ft 438 kts 41°
2026-04-14 10:59 39.69973 -7.95738 21322 ft 439 kts 40°
2026-04-14 10:59 39.72200 -7.93017 21601 ft 441 kts 39°
2026-04-14 11:00 39.74423 -7.90335 21883 ft 442 kts 39°
2026-04-14 11:00 39.76678 -7.87596 22146 ft 445 kts 39°
2026-04-14 11:00 39.78928 -7.84818 22421 ft 447 kts 40°
2026-04-14 11:00 39.81172 -7.82001 22684 ft 449 kts 40°
2026-04-14 11:01 39.83417 -7.79155 22960 ft 451 kts 40°
2026-04-14 11:01 39.85661 -7.76295 23211 ft 454 kts 40°
2026-04-14 11:01 39.87920 -7.73408 23483 ft 455 kts 41°
2026-04-14 11:01 39.90187 -7.70516 23742 ft 457 kts 40°
2026-04-14 11:02 39.92471 -7.67613 23946 ft 459 kts 40°
2026-04-14 11:02 39.94951 -7.65028 24152 ft 454 kts 28°
2026-04-14 11:02 39.97660 -7.62907 24356 ft 455 kts 27°
2026-04-14 11:02 40.00386 -7.60794 24569 ft 456 kts 27°
2026-04-14 11:03 40.03118 -7.58683 24757 ft 458 kts 27°
2026-04-14 11:03 40.05870 -7.56559 24918 ft 460 kts 27°
2026-04-14 11:03 40.08630 -7.54427 25107 ft 461 kts 27°
2026-04-14 11:03 40.11389 -7.52288 25302 ft 462 kts 27°
2026-04-14 11:04 40.14155 -7.50138 25534 ft 462 kts 27°
2026-04-14 11:04 40.16910 -7.47999 25805 ft 460 kts 27°
2026-04-14 11:04 40.19665 -7.45858 26069 ft 459 kts 27°
2026-04-14 11:04 40.22368 -7.43751 26308 ft 458 kts 27°
2026-04-14 11:05 40.25107 -7.41610 26580 ft 457 kts 27°
2026-04-14 11:05 40.27839 -7.39474 26835 ft 456 kts 27°
2026-04-14 11:05 40.30559 -7.37351 27097 ft 455 kts 27°
2026-04-14 11:05 40.33284 -7.35226 27357 ft 454 kts 27°
2026-04-14 11:06 40.35997 -7.33110 27610 ft 453 kts 27°
2026-04-14 11:06 40.38705 -7.30994 27873 ft 452 kts 27°
2026-04-14 11:06 40.41409 -7.28881 28141 ft 451 kts 27°
2026-04-14 11:06 40.44101 -7.26775 28410 ft 450 kts 27°
2026-04-14 11:07 40.46756 -7.24690 28674 ft 449 kts 27°
2026-04-14 11:07 40.49436 -7.22581 28950 ft 448 kts 27°
2026-04-14 11:07 40.52113 -7.20473 29231 ft 447 kts 27°
2026-04-14 11:07 40.54781 -7.18370 29493 ft 446 kts 27°
2026-04-14 11:08 40.56544 -7.16979 29674 ft 445 kts 27°
2026-04-14 11:08 40.59201 -7.14880 29939 ft 444 kts 27°
2026-04-14 11:08 40.61849 -7.12792 30208 ft 443 kts 27°
2026-04-14 11:08 40.65348 -7.10034 30518 ft 442 kts 27°
2026-04-14 11:09 40.67983 -7.07955 30743 ft 441 kts 27°
2026-04-14 11:09 40.69758 -7.06551 30891 ft 440 kts 27°
2026-04-14 11:09 40.72381 -7.04473 31087 ft 440 kts 27°
2026-04-14 11:10 40.77585 -7.00345 31493 ft 438 kts 27°
2026-04-14 11:10 40.80196 -6.98270 31696 ft 437 kts 27°
2026-04-14 11:10 40.82802 -6.96193 31891 ft 437 kts 27°
2026-04-14 11:10 40.85402 -6.94122 32106 ft 436 kts 27°
2026-04-14 11:11 40.87998 -6.92057 32239 ft 436 kts 27°
2026-04-14 11:11 40.90605 -6.89985 32268 ft 438 kts 27°
2026-04-14 11:11 40.95840 -6.85821 32264 ft 439 kts 27°
2026-04-14 11:12 41.01066 -6.81643 32261 ft 438 kts 27°
2026-04-14 11:12 41.06279 -6.77468 32263 ft 438 kts 27°
2026-04-14 11:13 41.11454 -6.73314 32262 ft 438 kts 27°
2026-04-14 11:13 41.16660 -6.69126 32261 ft 438 kts 27°
2026-04-14 11:14 41.21870 -6.64920 32263 ft 439 kts 27°
2026-04-14 11:14 41.27092 -6.60708 32263 ft 439 kts 27°
2026-04-14 11:15 41.32324 -6.56483 32268 ft 440 kts 27°
2026-04-14 11:15 41.37552 -6.52249 32269 ft 440 kts 27°
2026-04-14 11:16 41.42785 -6.47988 32271 ft 441 kts 27°
2026-04-14 11:16 41.47982 -6.43756 32287 ft 440 kts 27°
2026-04-14 11:17 41.53210 -6.39504 32281 ft 440 kts 27°
2026-04-14 11:17 41.58428 -6.35248 32272 ft 439 kts 27°
2026-04-14 11:18 41.63646 -6.30980 32269 ft 439 kts 27°
2026-04-14 11:18 41.68854 -6.26704 32266 ft 440 kts 27°
2026-04-14 11:19 41.74068 -6.22429 32315 ft 440 kts 27°
2026-04-14 11:19 41.76646 -6.20315 32512 ft 439 kts 27°
2026-04-14 11:19 41.79244 -6.18179 32706 ft 437 kts 27°
2026-04-14 11:20 41.81836 -6.16037 32901 ft 437 kts 27°
2026-04-14 11:20 41.84421 -6.13897 33036 ft 437 kts 27°
2026-04-14 11:20 41.87009 -6.11755 33179 ft 437 kts 27°
2026-04-14 11:20 41.89596 -6.09613 33339 ft 437 kts 27°
2026-04-14 11:21 41.92179 -6.07473 33555 ft 435 kts 27°
2026-04-14 11:21 41.94740 -6.05354 33799 ft 432 kts 26°
2026-04-14 11:21 41.97300 -6.03240 34003 ft 431 kts 26°
2026-04-14 11:21 41.99850 -6.01131 34187 ft 430 kts 26°
2026-04-14 11:22 42.04911 -5.96939 34234 ft 430 kts 26°
2026-04-14 11:22 42.10000 -5.92706 34226 ft 430 kts 26°
2026-04-14 11:23 42.15084 -5.88456 34225 ft 430 kts 27°
2026-04-14 11:23 42.20167 -5.84191 34225 ft 430 kts 26°
2026-04-14 11:24 42.25259 -5.79936 34225 ft 430 kts 26°
2026-04-14 11:24 42.30352 -5.75674 34237 ft 431 kts 26°
2026-04-14 11:25 42.35415 -5.71418 34234 ft 431 kts 26°
2026-04-14 11:25 42.40499 -5.67134 34250 ft 430 kts 26°
2026-04-14 11:26 42.45581 -5.62853 34248 ft 430 kts 26°
2026-04-14 11:26 42.50656 -5.58556 34247 ft 430 kts 26°
2026-04-14 11:27 42.55730 -5.54260 34246 ft 430 kts 26°
2026-04-14 11:27 42.60799 -5.49966 34237 ft 429 kts 26°
2026-04-14 11:28 42.65869 -5.45656 34234 ft 429 kts 26°
2026-04-14 11:28 42.70889 -5.41368 34233 ft 429 kts 26°
2026-04-14 11:29 42.75958 -5.37044 34225 ft 429 kts 27°
2026-04-14 11:29 42.81022 -5.32709 34245 ft 430 kts 27°
2026-04-14 11:30 42.86077 -5.28375 34240 ft 429 kts 26°
2026-04-14 11:30 42.91126 -5.24050 34240 ft 428 kts 26°
2026-04-14 11:31 42.96170 -5.19719 34233 ft 428 kts 27°
2026-04-14 11:31 43.01207 -5.15376 34231 ft 428 kts 26°
2026-04-14 11:32 43.06210 -5.11057 34227 ft 428 kts 27°
2026-04-14 11:32 43.11239 -5.06700 34229 ft 428 kts 27°
2026-04-14 11:33 43.16279 -5.02325 34222 ft 429 kts 27°
2026-04-14 11:34 43.23839 -4.95753 34231 ft 429 kts 27°
2026-04-14 11:34 43.28880 -4.91362 34241 ft 428 kts 27°
2026-04-14 11:35 43.33899 -4.86980 34235 ft 427 kts 26°
2026-04-14 11:35 43.38918 -4.82592 34233 ft 428 kts 27°
2026-04-14 11:36 43.43944 -4.78195 34225 ft 428 kts 27°
2026-04-14 11:36 43.48940 -4.73812 34226 ft 428 kts 27°
2026-04-14 11:37 43.53964 -4.69388 34221 ft 428 kts 27°
2026-04-14 11:37 43.58988 -4.64957 34217 ft 429 kts 27°
2026-04-14 11:38 43.63844 -4.60074 34216 ft 434 kts 32°
2026-04-14 11:38 43.68567 -4.54882 34244 ft 434 kts 33°
2026-04-14 11:39 43.73266 -4.49654 34235 ft 433 kts 32°
2026-04-14 11:39 43.77979 -4.44444 34226 ft 433 kts 32°
2026-04-14 11:40 43.82694 -4.39260 34224 ft 433 kts 32°
2026-04-14 11:40 43.87427 -4.34060 34225 ft 434 kts 32°
2026-04-14 11:41 43.92117 -4.28880 34221 ft 434 kts 32°
2026-04-14 11:41 43.96830 -4.23649 34233 ft 434 kts 32°
2026-04-14 11:42 44.01549 -4.18405 34224 ft 434 kts 32°
2026-04-14 11:42 44.06261 -4.13168 34221 ft 434 kts 32°
2026-04-14 11:43 44.10969 -4.07925 34223 ft 434 kts 32°
2026-04-14 11:43 44.15679 -4.02669 34225 ft 434 kts 32°
2026-04-14 11:44 44.20388 -3.97406 34216 ft 434 kts 33°
2026-04-14 11:44 44.25066 -3.92153 34207 ft 435 kts 33°
2026-04-14 11:45 44.29784 -3.86851 34202 ft 435 kts 32°
2026-04-14 11:45 44.34503 -3.81563 34230 ft 435 kts 33°
2026-04-14 11:46 44.39224 -3.76259 34223 ft 434 kts 33°
2026-04-14 11:46 44.43922 -3.70957 34216 ft 434 kts 33°
2026-04-14 11:47 44.48628 -3.65640 34212 ft 434 kts 33°
2026-04-14 11:47 44.53290 -3.60345 34215 ft 434 kts 33°
2026-04-14 11:48 44.57986 -3.55020 34208 ft 434 kts 33°
2026-04-14 11:48 44.62683 -3.49687 34209 ft 434 kts 33°
2026-04-14 11:49 44.67386 -3.44336 34207 ft 435 kts 33°
2026-04-14 11:49 44.72077 -3.38977 34219 ft 434 kts 33°
2026-04-14 11:50 44.76757 -3.33610 34217 ft 433 kts 33°
2026-04-14 11:50 44.81408 -3.28288 34210 ft 433 kts 33°
2026-04-14 11:51 44.88410 -3.20245 34207 ft 433 kts 33°
2026-04-14 11:51 44.93072 -3.14871 34208 ft 433 kts 33°
2026-04-14 11:52 44.97730 -3.09485 34205 ft 433 kts 33°
2026-04-14 11:52 45.02392 -3.04095 34233 ft 433 kts 33°
2026-04-14 11:53 45.07035 -2.98689 34219 ft 432 kts 33°
2026-04-14 11:53 45.11636 -2.93334 34210 ft 431 kts 33°
2026-04-14 11:54 45.16265 -2.87950 34214 ft 430 kts 33°
2026-04-14 11:54 45.20893 -2.82553 34208 ft 431 kts 33°
2026-04-14 11:55 45.25516 -2.77137 34205 ft 431 kts 33°
2026-04-14 11:55 45.30135 -2.71714 34210 ft 431 kts 33°
2026-04-14 11:56 45.34751 -2.66279 34229 ft 430 kts 33°
2026-04-14 11:56 45.39348 -2.60854 34224 ft 429 kts 33°
2026-04-14 11:57 45.43908 -2.55464 34208 ft 429 kts 33°
2026-04-14 11:57 45.48503 -2.50024 34204 ft 429 kts 33°
2026-04-14 11:58 45.53091 -2.44598 34208 ft 429 kts 33°
2026-04-14 11:58 45.57679 -2.39147 34203 ft 429 kts 33°
2026-04-14 11:59 45.62263 -2.33680 34229 ft 429 kts 33°
2026-04-14 11:59 45.66843 -2.28202 34221 ft 429 kts 33°
2026-04-14 12:00 45.71421 -2.22716 34216 ft 429 kts 33°
2026-04-14 12:00 45.75963 -2.17265 34221 ft 429 kts 33°
2026-04-14 12:01 45.80535 -2.11766 34216 ft 429 kts 34°
2026-04-14 12:01 45.85103 -2.06254 34211 ft 429 kts 34°
2026-04-14 12:02 45.89680 -2.00725 34212 ft 430 kts 34°
2026-04-14 12:02 45.94227 -1.95236 34233 ft 429 kts 34°
2026-04-14 12:03 45.98793 -1.89704 34231 ft 429 kts 34°
2026-04-14 12:03 46.03340 -1.84167 34219 ft 428 kts 34°
2026-04-14 12:04 46.07885 -1.78620 34213 ft 428 kts 34°
2026-04-14 12:04 46.12423 -1.73081 34217 ft 428 kts 34°
2026-04-14 12:05 46.16968 -1.67519 34219 ft 428 kts 34°
2026-04-14 12:05 46.20743 -1.62887 34219 ft 429 kts 34°
2026-04-14 12:06 46.25288 -1.57310 34248 ft 428 kts 34°
2026-04-14 12:06 46.29822 -1.51730 34242 ft 427 kts 34°
2026-04-14 12:07 46.34339 -1.46145 34233 ft 426 kts 34°
2026-04-14 12:07 46.38816 -1.40597 34237 ft 426 kts 34°
2026-04-14 12:08 46.43325 -1.35010 34219 ft 426 kts 34°
2026-04-14 12:08 46.47838 -1.29417 34217 ft 427 kts 34°
2026-04-14 12:09 46.52344 -1.23797 34215 ft 427 kts 34°
2026-04-14 12:09 46.56863 -1.18213 34242 ft 425 kts 33°
2026-04-14 12:10 46.61352 -1.12704 34214 ft 422 kts 33°
2026-04-14 12:10 46.65826 -1.07185 34212 ft 422 kts 33°
2026-04-14 12:11 46.70299 -1.01644 34213 ft 422 kts 34°
2026-04-14 12:11 46.74765 -0.96087 34214 ft 422 kts 34°
2026-04-14 12:12 46.79208 -0.90559 34215 ft 422 kts 34°
2026-04-14 12:12 46.83679 -0.84990 34216 ft 423 kts 34°
2026-04-14 12:13 46.88146 -0.79401 34221 ft 420 kts 34°
2026-04-14 12:13 46.92560 -0.73865 34216 ft 418 kts 34°
2026-04-14 12:14 46.96968 -0.68333 34220 ft 417 kts 34°
2026-04-14 12:14 47.01374 -0.62788 34215 ft 418 kts 34°
2026-04-14 12:15 47.05790 -0.57218 34212 ft 419 kts 34°
2026-04-14 12:15 47.10203 -0.51646 34212 ft 419 kts 34°
2026-04-14 12:16 47.14613 -0.46060 34211 ft 419 kts 34°
2026-04-14 12:16 47.18994 -0.40498 34220 ft 419 kts 34°
2026-04-14 12:17 47.23422 -0.34864 34203 ft 420 kts 34°
2026-04-14 12:17 47.27735 -0.29012 34214 ft 423 kts 37°
2026-04-14 12:18 47.31912 -0.22865 34211 ft 425 kts 38°
2026-04-14 12:18 47.36058 -0.16727 34210 ft 424 kts 37°
2026-04-14 12:19 47.40265 -0.10611 34199 ft 424 kts 37°
2026-04-14 12:19 47.44489 -0.04510 34194 ft 425 kts 37°
2026-04-14 12:20 47.48705 0.01604 34224 ft 423 kts 37°
2026-04-14 12:20 47.52841 0.07787 34216 ft 426 kts 43°
2026-04-14 12:21 47.56537 0.14608 34213 ft 428 kts 44°
2026-04-14 12:21 47.60194 0.21563 34227 ft 428 kts 44°
2026-04-14 12:22 47.63861 0.28542 34220 ft 428 kts 44°
2026-04-14 12:22 47.67511 0.35458 34219 ft 428 kts 44°
2026-04-14 12:23 47.71187 0.42422 34247 ft 428 kts 44°
2026-04-14 12:23 47.74820 0.49336 34215 ft 423 kts 44°
2026-04-14 12:24 47.78432 0.56226 34216 ft 422 kts 44°
2026-04-14 12:24 47.82037 0.63128 34216 ft 422 kts 44°
2026-04-14 12:25 47.85636 0.70038 34211 ft 423 kts 44°
2026-04-14 12:25 47.89217 0.76918 34209 ft 423 kts 44°
2026-04-14 12:26 47.92815 0.83863 34209 ft 423 kts 44°
2026-04-14 12:26 47.96411 0.90809 34230 ft 422 kts 44°
2026-04-14 12:27 47.99990 0.97739 34223 ft 421 kts 44°
2026-04-14 12:27 48.03560 1.04683 34216 ft 421 kts 44°
2026-04-14 12:28 48.07122 1.11620 34208 ft 421 kts 44°
2026-04-14 12:28 48.10681 1.18564 34203 ft 421 kts 44°
2026-04-14 12:29 48.14213 1.25483 34206 ft 421 kts 45°
2026-04-14 12:29 48.17765 1.32445 34232 ft 421 kts 45°
2026-04-14 12:30 48.21308 1.39423 34219 ft 421 kts 45°
2026-04-14 12:30 48.24851 1.46424 34215 ft 421 kts 45°
2026-04-14 12:31 48.28396 1.53430 34207 ft 422 kts 45°
2026-04-14 12:31 48.31940 1.60463 34202 ft 422 kts 45°
2026-04-14 12:32 48.35481 1.67505 34201 ft 422 kts 45°
2026-04-14 12:32 48.39021 1.74559 34229 ft 423 kts 45°
2026-04-14 12:33 48.42541 1.81589 34225 ft 424 kts 45°
2026-04-14 12:33 48.46087 1.88689 34207 ft 425 kts 45°
2026-04-14 12:34 48.49633 1.95825 34211 ft 426 kts 45°
2026-04-14 12:34 48.53182 2.02986 34219 ft 426 kts 45°
2026-04-14 12:35 48.54768 2.06807 34214 ft 438 kts 57°
2026-04-14 12:35 48.55994 2.11028 34218 ft 440 kts 58°
2026-04-14 12:35 48.58399 2.19559 34240 ft 442 kts 59°
2026-04-14 12:36 48.60782 2.28138 34232 ft 443 kts 59°
2026-04-14 12:36 48.63158 2.36723 34236 ft 443 kts 59°
2026-04-14 12:37 48.65531 2.45270 34229 ft 444 kts 59°
2026-04-14 12:37 48.67919 2.53894 34228 ft 445 kts 59°
2026-04-14 12:38 48.71500 2.66870 34248 ft 446 kts 60°
2026-04-14 12:39 48.73886 2.75575 34233 ft 447 kts 60°
2026-04-14 12:39 48.76258 2.84242 34210 ft 448 kts 60°
2026-04-14 12:40 48.78637 2.92993 34221 ft 449 kts 60°
2026-04-14 12:40 48.81007 3.01758 34222 ft 450 kts 60°
2026-04-14 12:41 48.83382 3.10556 34231 ft 450 kts 61°
2026-04-14 12:41 48.85764 3.19383 34225 ft 451 kts 61°
2026-04-14 12:42 48.88113 3.28157 34224 ft 452 kts 61°
2026-04-14 12:42 48.90473 3.37027 34223 ft 452 kts 61°
2026-04-14 12:43 48.92830 3.45899 34224 ft 452 kts 61°
2026-04-14 12:43 48.95192 3.54785 34244 ft 453 kts 61°
2026-04-14 12:44 48.97548 3.63687 34237 ft 453 kts 61°
2026-04-14 12:44 48.99894 3.72603 34234 ft 454 kts 61°
2026-04-14 12:45 49.03380 3.85945 34237 ft 454 kts 62°
2026-04-14 12:45 49.05705 3.94902 34237 ft 454 kts 62°
2026-04-14 12:46 49.08028 4.03860 34234 ft 454 kts 62°
2026-04-14 12:46 49.10351 4.12826 34237 ft 455 kts 62°
2026-04-14 12:47 49.12665 4.21814 34237 ft 455 kts 62°
2026-04-14 12:47 49.14973 4.30818 34236 ft 455 kts 62°
2026-04-14 12:48 49.17273 4.39819 34235 ft 455 kts 62°
2026-04-14 12:48 49.19552 4.48785 34252 ft 455 kts 62°
2026-04-14 12:49 49.21836 4.57808 34243 ft 455 kts 62°
2026-04-14 12:49 49.24110 4.66840 34224 ft 455 kts 62°
2026-04-14 12:50 49.27529 4.80418 34215 ft 456 kts 62°
2026-04-14 12:51 49.29796 4.89489 34242 ft 456 kts 63°
2026-04-14 12:51 49.32064 4.98578 34232 ft 456 kts 63°
2026-04-14 12:52 49.34316 5.07680 34221 ft 457 kts 63°
2026-04-14 12:52 49.36542 5.16744 34221 ft 457 kts 63°
2026-04-14 12:53 49.38786 5.25860 34219 ft 457 kts 63°
2026-04-14 12:53 49.41032 5.35000 34222 ft 457 kts 63°
2026-04-14 12:54 49.43256 5.44144 34227 ft 457 kts 64°
2026-04-14 12:54 49.45471 5.53299 34206 ft 457 kts 64°
2026-04-14 12:55 49.47687 5.62470 34208 ft 457 kts 64°
2026-04-14 12:55 49.49893 5.71656 34202 ft 457 kts 64°
2026-04-14 12:56 49.52022 5.80834 34208 ft 460 kts 67°
2026-04-14 12:56 49.53791 5.90319 34217 ft 461 kts 71°
2026-04-14 12:57 49.55362 5.99906 34215 ft 461 kts 71°
2026-04-14 12:57 49.56965 6.09462 34152 ft 460 kts 70°
2026-04-14 12:57 49.57784 6.14157 33876 ft 459 kts 70°
2026-04-14 12:58 49.58620 6.18891 33462 ft 458 kts 70°
2026-04-14 12:58 49.59463 6.23648 32595 ft 460 kts 70°
2026-04-14 12:58 49.60306 6.28421 31750 ft 461 kts 70°
2026-04-14 12:58 49.61146 6.33212 30858 ft 463 kts 71°
2026-04-14 12:59 49.61981 6.38015 29898 ft 465 kts 72°
2026-04-14 12:59 49.62810 6.42842 28921 ft 465 kts 72°
2026-04-14 12:59 49.63633 6.47671 27914 ft 466 kts 72°
2026-04-14 12:59 49.64459 6.52521 26895 ft 468 kts 73°
2026-04-14 13:00 49.65008 6.55739 26192 ft 469 kts 72°
2026-04-14 13:00 49.65843 6.60626 25110 ft 472 kts 73°
2026-04-14 13:00 49.66953 6.67126 23784 ft 474 kts 73°
2026-04-14 13:00 49.67516 6.70444 23141 ft 472 kts 73°
2026-04-14 13:01 49.68598 6.76871 22110 ft 463 kts 74°
2026-04-14 13:01 49.69401 6.81651 21315 ft 458 kts 74°
2026-04-14 13:01 49.69938 6.84854 20787 ft 454 kts 74°
2026-04-14 13:01 49.70716 6.89488 20027 ft 449 kts 73°
2026-04-14 13:02 49.71494 6.94124 19271 ft 444 kts 74°
2026-04-14 13:02 49.72261 6.98719 18526 ft 439 kts 74°
2026-04-14 13:02 49.73013 7.03255 17718 ft 433 kts 74°
2026-04-14 13:02 49.73752 7.07720 17001 ft 425 kts 74°
2026-04-14 13:03 49.74477 7.12117 16282 ft 419 kts 73°
2026-04-14 13:03 49.75192 7.16441 15589 ft 413 kts 74°
2026-04-14 13:03 49.75900 7.20714 14915 ft 407 kts 75°
2026-04-14 13:03 49.76597 7.24933 14269 ft 402 kts 75°
2026-04-14 13:04 49.77283 7.29107 13595 ft 398 kts 76°
2026-04-14 13:04 49.77955 7.33225 12990 ft 391 kts 76°
2026-04-14 13:04 49.78615 7.37284 12424 ft 386 kts 76°
2026-04-14 13:04 49.79255 7.41223 12237 ft 368 kts 76°
2026-04-14 13:05 49.79865 7.44972 12113 ft 351 kts 76°
2026-04-14 13:05 49.80438 7.48501 11956 ft 323 kts 76°
2026-04-14 13:05 49.80957 7.51723 11831 ft 298 kts 76°
2026-04-14 13:05 49.81441 7.54743 11702 ft 287 kts 76°
2026-04-14 13:06 49.81913 7.57690 11568 ft 276 kts 76°
2026-04-14 13:06 49.82366 7.60522 11423 ft 267 kts 76°
2026-04-14 13:06 49.82811 7.63293 11142 ft 264 kts 76°
2026-04-14 13:06 49.83253 7.66040 10846 ft 261 kts 76°
2026-04-14 13:07 49.83688 7.68762 10537 ft 260 kts 76°
2026-04-14 13:07 49.84121 7.71465 10235 ft 258 kts 77°
2026-04-14 13:07 49.84550 7.74168 9859 ft 259 kts 76°
2026-04-14 13:07 49.84979 7.76861 9545 ft 256 kts 76°
2026-04-14 13:08 49.85404 7.79533 9214 ft 254 kts 75°
2026-04-14 13:08 49.85825 7.82180 8907 ft 252 kts 75°
2026-04-14 13:08 49.86237 7.84770 8604 ft 249 kts 75°
2026-04-14 13:08 49.86671 7.87353 8295 ft 246 kts 69°
2026-04-14 13:09 49.87272 7.89854 7849 ft 249 kts 68°
2026-04-14 13:09 49.87894 7.92374 7422 ft 252 kts 67°
2026-04-14 13:09 49.88520 7.94908 7146 ft 249 kts 67°
2026-04-14 13:09 49.89134 7.97405 6863 ft 246 kts 67°
2026-04-14 13:10 49.89741 7.99872 6544 ft 244 kts 66°
2026-04-14 13:10 49.90343 8.02321 6226 ft 242 kts 66°
2026-04-14 13:10 49.90947 8.04748 5884 ft 241 kts 66°
2026-04-14 13:10 49.91546 8.07167 5547 ft 240 kts 67°
2026-04-14 13:11 49.92130 8.09553 5337 ft 234 kts 67°
2026-04-14 13:11 49.92704 8.11899 5004 ft 232 kts 68°
2026-04-14 13:11 49.93276 8.14240 4684 ft 231 kts 67°
2026-04-14 13:11 49.93835 8.16532 4343 ft 230 kts 68°
2026-04-14 13:12 49.94399 8.18848 4053 ft 227 kts 66°
2026-04-14 13:12 49.94960 8.21151 4012 ft 228 kts 67°
2026-04-14 13:12 49.95511 8.23419 4022 ft 217 kts 66°
2026-04-14 13:12 49.96037 8.25585 3997 ft 213 kts 67°
2026-04-14 13:13 49.96560 8.27740 3816 ft 212 kts 68°
2026-04-14 13:13 49.97078 8.29876 3563 ft 209 kts 67°
2026-04-14 13:13 49.97580 8.31950 3287 ft 201 kts 66°
2026-04-14 13:13 49.98065 8.33951 2998 ft 195 kts 68°
2026-04-14 13:14 49.98527 8.35864 2739 ft 183 kts 67°
2026-04-14 13:14 49.98955 8.37642 2524 ft 168 kts 66°
2026-04-14 13:14 49.99353 8.39291 2288 ft 159 kts 65°
2026-04-14 13:14 49.99735 8.40872 2077 ft 155 kts 67°
2026-04-14 13:15 50.00105 8.42405 1867 ft 149 kts 66°
2026-04-14 13:15 50.00461 8.43881 1671 ft 146 kts 66°
2026-04-14 13:15 50.00811 8.45334 1470 ft 144 kts 68°
2026-04-14 13:15 50.01162 8.46793 1270 ft 145 kts 66°
2026-04-14 13:16 50.01518 8.48271 1068 ft 146 kts 66°
2026-04-14 13:16 50.01876 8.49760 878 ft 148 kts 67°
2026-04-14 13:16 50.02236 8.51261 676 ft 148 kts 66°
2026-04-14 13:16 50.02597 8.52766 478 ft 149 kts 66°
2026-04-14 13:17 50.02955 8.54257 334 ft 140 kts 69°
2026-04-14 13:17 50.03241 8.55461 346 ft 95 kts 69°
2026-04-14 13:17 50.03390 8.56066 355 ft 29 kts 69°
2026-04-14 13:17 50.03500 8.56319 355 ft 28 kts 44°
2026-04-14 13:18 50.03620 8.56478 350 ft 14 kts 39°
2026-04-14 13:18 50.03657 8.56526 352 ft 0 kts 40°
2026-04-14 13:19 50.03666 8.56538 357 ft 7 kts 40°
2026-04-14 13:19 50.03734 8.56626 355 ft 16 kts 40°
2026-04-14 13:19 50.03801 8.56765 359 ft 18 kts 69°
2026-04-14 13:19 50.03848 8.56963 355 ft 20 kts 70°
2026-04-14 13:20 50.03895 8.57158 365 ft 18 kts 69°
2026-04-14 13:20 50.03937 8.57338 363 ft 17 kts 69°
2026-04-14 13:20 50.03977 8.57503 366 ft 17 kts 70°
2026-04-14 13:20 50.04025 8.57703 369 ft 22 kts 70°
2026-04-14 13:21 50.04078 8.57925 368 ft 22 kts 69°
2026-04-14 13:21 50.04128 8.58106 370 ft 15 kts 53°
2026-04-14 13:21 50.04220 8.58191 369 ft 15 kts 21°
2026-04-14 13:21 50.04264 8.58206 370 ft 1 kts
2026-04-14 13:22 50.04276 8.58203 368 ft 0 kts 348°
2026-04-14 13:22 50.04305 8.58191 369 ft 11 kts 341°
2026-04-14 13:23 50.04386 8.58146 371 ft 13 kts 340°
2026-04-14 13:23 50.04481 8.58091 365 ft 16 kts 340°
2026-04-14 13:23 50.04529 8.57963 364 ft 16 kts 255°
2026-04-14 13:23 50.04493 8.57809 366 ft 12 kts 249°
2026-04-14 13:24 50.04481 8.57760 366 ft 0 kts 250°
2026-04-14 13:24 50.04472 8.57722 367 ft 8 kts 249°
2026-04-14 13:25 50.04441 8.57592 368 ft 18 kts 250°
2026-04-14 13:25 50.04395 8.57400 366 ft 19 kts 249°
2026-04-14 13:26 50.04280 8.56889 360 ft 12 kts 276°
2026-04-14 13:26 50.04332 8.56828 363 ft 10 kts
2026-04-14 13:26 50.04400 8.56842 361 ft 10 kts
2026-04-14 13:26 50.04476 8.56863 359 ft 12 kts 14°
2026-04-14 13:27 50.04518 8.56841 359 ft 5 kts 289°
2026-04-14 13:27 50.04528 8.56799 361 ft 6 kts 292°
2026-04-14 13:27 50.04544 8.56742 362 ft 1 kts 295°
2026-04-14 13:27 50.04545 8.56740 362 ft 0 kts 295°
2026-04-14 13:28 50.04546 8.56736 363 ft 0 kts 295°